Weather History for Stanley, ND

Change the Weather History Date:

Monday, April 29, 2013

  Actual Average (KMOT) Record (KMOT)
Temperature  
Mean Temperature 48 °F 49 °F  
Max Temperature 64 °F 61 °F 87 °F (1949)
Min Temperature 32 °F 37 °F 16 °F (1966)
Degree Days  
Heating Degree Days 17 16  
Month to date heating degree days 637  
Since 1 July heating degree days 8352  
Cooling Degree Days 0 0  
Month to date cooling degree days 0  
Year to date cooling degree days 0  
Moisture  
Dew Point 30 °F    
Average Humidity 56    
Maximum Humidity 100    
Minimum Humidity 26    
Precipitation  
Precipitation 0.00 in 0.05 in 0.80 in (2009)
Month to date precipitation 1.08  
Year to date precipitation 2.83  
Sea Level Pressure  
Sea Level Pressure 29.56 in    
Wind  
Wind Speed 12 mph (SSW)    
Max Wind Speed 23 mph    
Max Gust Speed 36 mph    
Visibility 10 miles    
Events Rain    
T = Trace of Precipitation, MM = Missing Value Source: NWS Daily Summary

Daily Weather History Graph

Daily Weather History Graph

Search for Another Location

Airport:

Trip Planner

Search our weather history database for the weather conditions in past years. The results will help you decide how hot, cold, wet, or windy it might be!

Date:

Astronomy

Apr. 29, 2013 Rise Set
Actual Time 6:33 AM CDT 9:01 PM CDT
Civil Twilight 5:58 AM CDT 9:36 PM CDT
Nautical Twilight 5:15 AM CDT 10:20 PM CDT
Astronomical Twilight 4:24 AM CDT 11:10 PM CDT
Moon 12:40 AM CDT (4/29) 9:48 AM CDT (4/29)
Length of Visible Light 15h 37m
Length of Day
14h 27m
Waning Gibbous, 80% of the Moon is Illuminated
Apr 29
Waning Gibbous
May 2
Last Quarter
May 9
New
May 17
First Quarter
May 24
Full

Hourly Weather History & Observations

Time (CDT) Temp. Windchill Dew Point Humidity Pressure Visibility Wind Dir Wind Speed Gust Speed Precip Events Conditions
12:15 AM 35.6 °F 30.7 °F 28.4 °F 75% 29.86 in 10.0 mi SE 5.8 mph - N/A   Clear
12:35 AM 33.8 °F 29.6 °F 26.6 °F 75% 29.85 in 10.0 mi SSE 4.6 mph - N/A   Clear
12:55 AM 33.8 °F 29.6 °F 26.6 °F 75% 29.84 in 10.0 mi SE 4.6 mph - N/A   Clear
1:15 AM 32.0 °F 26.4 °F 28.4 °F 87% 29.83 in 10.0 mi SE 5.8 mph - N/A   Clear
1:35 AM 33.8 °F 26.4 °F 26.6 °F 75% 29.82 in 10.0 mi SE 9.2 mph - N/A   Clear
1:55 AM 32.0 °F 25.6 °F 24.8 °F 75% 29.81 in 10.0 mi SE 6.9 mph - N/A   Clear
2:15 AM 33.8 °F 29.6 °F 24.8 °F 70% 29.81 in 10.0 mi SE 4.6 mph - N/A   Clear
2:35 AM 35.6 °F 30.7 °F 23.0 °F 60% 29.80 in 10.0 mi SSE 5.8 mph - N/A   Clear
2:55 AM 33.8 °F 26.4 °F 23.0 °F 65% 29.78 in 10.0 mi South 9.2 mph - N/A   Clear
3:15 AM 33.8 °F 26.4 °F 23.0 °F 65% 29.77 in 10.0 mi South 9.2 mph - N/A   Clear
3:35 AM 33.8 °F 25.3 °F 23.0 °F 65% 29.76 in 10.0 mi South 11.5 mph - N/A   Clear
3:55 AM 33.8 °F 25.3 °F 23.0 °F 65% 29.75 in 10.0 mi South 11.5 mph - N/A   Clear
4:15 AM 33.8 °F 25.3 °F 21.2 °F 60% 29.74 in 10.0 mi South 11.5 mph - N/A   Clear
4:35 AM 35.6 °F 27.1 °F 19.4 °F 52% 29.73 in 10.0 mi South 12.7 mph 20.7 mph N/A   Clear
4:55 AM 35.6 °F 27.1 °F 19.4 °F 52% 29.72 in 10.0 mi South 12.7 mph - N/A   Clear
5:15 AM 37.4 °F 28.2 °F 17.6 °F 45% 29.70 in 10.0 mi South 16.1 mph 19.6 mph N/A   Clear
5:35 AM 37.4 °F 27.2 °F 17.6 °F 45% 29.68 in 10.0 mi South 19.6 mph 26.5 mph N/A   Clear
5:55 AM 37.4 °F 26.6 °F 17.6 °F 45% 29.67 in 10.0 mi South 21.9 mph 28.8 mph N/A   Clear
6:15 AM 37.4 °F 26.6 °F 17.6 °F 45% 29.66 in 10.0 mi South 21.9 mph 29.9 mph N/A   Clear
6:35 AM 37.4 °F 26.9 °F 17.6 °F 45% 29.64 in 10.0 mi South 20.7 mph 31.1 mph N/A   Scattered Clouds
6:55 AM 37.4 °F 26.9 °F 15.8 °F 41% 29.63 in 10.0 mi South 20.7 mph 34.5 mph N/A   Overcast
7:15 AM 39.2 °F 29.8 °F 17.6 °F 42% 29.61 in 10.0 mi South 18.4 mph 28.8 mph N/A   Scattered Clouds
7:35 AM 39.2 °F 29.8 °F 19.4 °F 45% 29.62 in 10.0 mi South 18.4 mph 27.6 mph N/A   Mostly Cloudy
7:55 AM 39.2 °F 30.5 °F 21.2 °F 49% 29.61 in 10.0 mi South 16.1 mph 24.2 mph N/A   Overcast
8:15 AM 39.2 °F 29.8 °F 23.0 °F 52% 29.59 in 10.0 mi South 18.4 mph 28.8 mph N/A   Mostly Cloudy
8:35 AM 39.2 °F 29.8 °F 24.8 °F 56% 29.60 in 10.0 mi South 18.4 mph - N/A   Scattered Clouds
8:55 AM 39.2 °F 29.8 °F 26.6 °F 61% 29.57 in 10.0 mi South 18.4 mph 25.3 mph N/A   Partly Cloudy
9:15 AM 41.0 °F 32.5 °F 26.6 °F 57% 29.57 in 10.0 mi South 17.3 mph 21.9 mph N/A   Partly Cloudy
9:35 AM 41.0 °F 32.8 °F 28.4 °F 61% 29.55 in 10.0 mi South 16.1 mph 21.9 mph N/A   Mostly Cloudy
9:55 AM 44.6 °F 37.2 °F 32.0 °F 61% 29.55 in 10.0 mi South 17.3 mph - N/A   Scattered Clouds
10:15 AM 46.4 °F 39.0 °F 35.6 °F 66% 29.54 in 10.0 mi South 19.6 mph 23.0 mph N/A   Clear
10:35 AM 50.0 °F - 37.4 °F 62% 29.53 in 10.0 mi SSW 18.4 mph - N/A   Clear
10:55 AM 51.8 °F - 37.4 °F 58% 29.52 in 10.0 mi SSW 19.6 mph 26.5 mph N/A   Clear
11:15 AM 53.6 °F - 39.2 °F 58% 29.51 in 10.0 mi SSW 18.4 mph 26.5 mph N/A   Clear
11:35 AM 57.2 °F - 37.4 °F 48% 29.51 in 10.0 mi SW 19.6 mph 25.3 mph N/A   Clear
11:55 AM 59.0 °F - 35.6 °F 42% 29.50 in 10.0 mi SW 15.0 mph 21.9 mph N/A   Clear
12:15 PM 59.0 °F - 33.8 °F 39% 29.50 in 10.0 mi WSW 17.3 mph 21.9 mph N/A   Clear
12:35 PM 59.0 °F - 32.0 °F 36% 29.49 in 10.0 mi WSW 17.3 mph 23.0 mph N/A   Clear
1:15 PM 59.0 °F - 32.0 °F 36% 29.48 in 10.0 mi WSW 13.8 mph - N/A   Clear
1:35 PM 59.0 °F - 32.0 °F 36% 29.48 in 10.0 mi SW 15.0 mph - N/A   Scattered Clouds
1:55 PM 62.6 °F - 32.0 °F 32% 29.47 in 10.0 mi SW 10.4 mph - N/A   Partly Cloudy
2:15 PM 62.6 °F - 28.4 °F 27% 29.46 in 10.0 mi WSW 15.0 mph 23.0 mph N/A   Clear
2:35 PM 62.6 °F - 28.4 °F 27% 29.45 in 10.0 mi WSW 17.3 mph 26.5 mph N/A   Clear
2:55 PM 62.6 °F - 26.6 °F 26% 29.45 in 10.0 mi West 17.3 mph 21.9 mph N/A   Scattered Clouds
3:15 PM 62.6 °F - 28.4 °F 27% 29.44 in 10.0 mi WSW 19.6 mph 24.2 mph N/A   Scattered Clouds
3:35 PM 60.8 °F - 28.4 °F 29% 29.45 in 10.0 mi WNW 19.6 mph 33.4 mph N/A   Scattered Clouds
3:55 PM 60.8 °F - 30.2 °F 31% 29.45 in 10.0 mi SW 23.0 mph 28.8 mph N/A   Partly Cloudy
4:15 PM 60.8 °F - 30.2 °F 31% 29.44 in 10.0 mi SW 16.1 mph 24.2 mph N/A   Clear
4:35 PM 64.4 °F - 30.2 °F 28% 29.42 in 10.0 mi WSW 15.0 mph 21.9 mph N/A   Partly Cloudy
4:55 PM 62.6 °F - 30.2 °F 30% 29.41 in 10.0 mi WSW 15.0 mph 24.2 mph N/A   Partly Cloudy
5:15 PM 64.4 °F - 30.2 °F 28% 29.40 in 10.0 mi WSW 11.5 mph 27.6 mph N/A   Partly Cloudy
5:35 PM 64.4 °F - 32.0 °F 30% 29.40 in 10.0 mi WSW 12.7 mph 23.0 mph N/A   Mostly Cloudy
5:55 PM 62.6 °F - 32.0 °F 32% 29.40 in 10.0 mi WSW 13.8 mph - N/A   Mostly Cloudy
6:15 PM 62.6 °F - 32.0 °F 32% 29.40 in 10.0 mi WSW 17.3 mph 23.0 mph N/A   Mostly Cloudy
6:35 PM 62.6 °F - 32.0 °F 32% 29.40 in 10.0 mi WSW 13.8 mph 18.4 mph N/A   Scattered Clouds
6:55 PM 57.2 °F - 35.6 °F 44% 29.42 in 10.0 mi WNW 20.7 mph 35.7 mph N/A   Mostly Cloudy
7:15 PM 53.6 °F - 39.2 °F 58% 29.41 in 10.0 mi NNW 5.8 mph - N/A Rain Light Rain
7:35 PM 50.0 °F - 39.2 °F 66% 29.43 in 10.0 mi NNW 18.4 mph 24.2 mph N/A   Partly Cloudy
7:55 PM 48.2 °F - 39.2 °F 71% 29.43 in 10.0 mi North 11.5 mph - N/A   Partly Cloudy
8:15 PM 48.2 °F - 39.2 °F 71% 29.42 in 10.0 mi NNE 6.9 mph - N/A   Clear
8:35 PM 48.2 °F - 39.2 °F 71% 29.42 in 10.0 mi NNE 8.1 mph - N/A   Partly Cloudy
8:55 PM 46.4 °F 45.2 °F 39.2 °F 76% 29.43 in 10.0 mi North 3.5 mph - N/A   Mostly Cloudy
9:15 PM 44.6 °F 38.1 °F 39.2 °F 81% 29.46 in 10.0 mi SW 13.8 mph - N/A   Mostly Cloudy
9:35 PM 44.6 °F 42.2 °F 39.2 °F 81% 29.46 in 10.0 mi SW 4.6 mph - N/A   Mostly Cloudy
9:55 PM 42.8 °F 41.1 °F 39.2 °F 87% 29.46 in 10.0 mi WSW 3.5 mph - N/A   Partly Cloudy
10:15 PM 41.0 °F 36.4 °F 39.2 °F 93% 29.46 in 10.0 mi West 6.9 mph - N/A   Clear
10:35 PM 41.0 °F 39.0 °F 39.2 °F 93% 29.46 in 10.0 mi West 3.5 mph - N/A   Clear
10:55 PM 41.0 °F 39.0 °F 41.0 °F 100% 29.45 in 10.0 mi WNW 3.5 mph - N/A   Clear
11:15 PM 41.0 °F 38.0 °F 41.0 °F 100% 29.45 in 10.0 mi NNE 4.6 mph - N/A   Clear
11:35 PM 41.0 °F - 39.2 °F 93% 29.46 in 10.0 mi Calm Calm - N/A   Clear
11:55 PM 39.2 °F - 39.2 °F 100% 29.45 in 10.0 mi Calm Calm - N/A   Clear